{"data":{"norad_id":53536,"intl_designator":"2022-101K","name":"STARLINK-4053","alt_names":[],"object_type":"PAYLOAD","status":"ACTIVE","operator":null,"country":"US","launch_date":"2022-08-19","launch_site_code":"AFETR","launch_vehicle":null,"mission":null,"orbit_class":"UNKNOWN","rcs_meters":null,"size_class":null,"mass_kg":null,"dimensions":null,"purposes":["comms"],"wikipedia_slug":null,"has_3d_model":false,"image_url":null,"decayed_at":null,"tle_current":{"epoch":"2026-05-25T03:27:41.521248Z","epoch_age_seconds":58661,"freshness":"FRESH","line1":"1 53536U 22101K   26145.14423057 -.00001018  00000+0 -45865-4 0  9995","line2":"2 53536  53.2168  80.8231 0001473  81.4239 278.6920 15.08826982207847","mean_motion":15.08826982,"eccentricity":0.0001473,"inclination_deg":53.2168,"raan_deg":80.8231,"arg_perigee_deg":81.4239,"mean_anomaly_deg":278.692,"bstar":-4.5865e-5,"rev_number":20784,"period_min":95.438378102918,"perigee_km":538.76417042574,"apogee_km":540.80218971079,"semimajor_km":6917.9201800683,"source":"CELESTRAK","updated_at":"2026-05-25T13:38:17.440956Z"}}}